When you browse on this site, cookies collect data to enhance your experience and personalize the content and advertising you see.
Visit our Privacy Policy to learn more. By continuing to use the site, you agree to this use of cookies and data.

Hourly Weather Kanye

Today, 2 July, Thursday

Time Temperature Precipitation Wind Pressure Humidity
00:00 +8°C° 0 mm 1 mps 655 mmHg 69%
01:00 +8°C° 0 mm 1 mps 655 mmHg 71%
02:00 +8°C° 0 mm 1 mps 655 mmHg 73%
03:00 +7°C° 0 mm 1 mps 654 mmHg 75%
04:00 +7°C° 0 mm 1 mps 654 mmHg 78%
05:00 +6°C° 0 mm 1 mps 654 mmHg 80%
06:00 +7°C° 0 mm 1 mps 654 mmHg 77%
07:00 +8°C° 0 mm 1 mps 655 mmHg 73%
08:00 +10°C° 0 mm 1 mps 656 mmHg 66%
09:00 +13°C° 0 mm 1 mps 657 mmHg 57%
10:00 +15°C° 0 mm 1 mps 657 mmHg 47%
11:00 +19°C° 0 mm 1 mps 658 mmHg 37%
12:00 +20°C° 0 mm 1 mps 658 mmHg 33%
13:00 +19°C° 0 mm 0 mps 657 mmHg 28%
14:00 +21°C° 0 mm 0 mps 657 mmHg 23%
15:00 +22°C° 0 mm 1 mps 656 mmHg 24%
16:00 +21°C° 0 mm 1 mps 656 mmHg 24%
17:00 +21°C° 0 mm 1 mps 655 mmHg 25%
18:00 +18°C° 0 mm 1 mps 655 mmHg 32%
19:00 +14°C° 0 mm 1 mps 654 mmHg 39%
20:00 +11°C° 0 mm 1 mps 654 mmHg 46%
21:00 +11°C° 0 mm 1 mps 654 mmHg 46%
22:00 +11°C° 0 mm 1 mps 654 mmHg 45%
23:00 +9°C° 0 mm 2 mps 654 mmHg 45%

Tomorrow, 3 July, Friday

Time Temperature Precipitation Wind Pressure Humidity
00:00 +10°C° 0 mm 1 mps 654 mmHg 47%
01:00 +9°C° 0 mm 1 mps 653 mmHg 50%
02:00 +9°C° 0 mm 1 mps 653 mmHg 52%
03:00 +9°C° 0 mm 1 mps 653 mmHg 52%
04:00 +8°C° 0 mm 1 mps 653 mmHg 53%
05:00 +8°C° 0 mm 1 mps 653 mmHg 53%
06:00 +9°C° 0 mm 1 mps 654 mmHg 49%
07:00 +10°C° 0 mm 1 mps 654 mmHg 45%
08:00 +10°C° 0 mm 2 mps 655 mmHg 41%
09:00 +14°C° 0 mm 2 mps 656 mmHg 34%
10:00 +17°C° 0 mm 2 mps 657 mmHg 27%
11:00 +20°C° 0 mm 3 mps 658 mmHg 20%
12:00 +23°C° 0 mm 2 mps 657 mmHg 18%
13:00 +24°C° 0 mm 2 mps 657 mmHg 16%
14:00 +25°C° 0 mm 2 mps 657 mmHg 13%
15:00 +24°C° 0 mm 2 mps 656 mmHg 14%
16:00 +23°C° 0 mm 2 mps 656 mmHg 15%
17:00 +21°C° 0 mm 2 mps 656 mmHg 16%
18:00 +19°C° 0 mm 2 mps 655 mmHg 19%
19:00 +16°C° 0 mm 2 mps 655 mmHg 22%
20:00 +14°C° 0 mm 2 mps 655 mmHg 25%
21:00 +13°C° 0 mm 2 mps 655 mmHg 26%
22:00 +12°C° 0 mm 2 mps 655 mmHg 28%
23:00 +10°C° 0 mm 2 mps 655 mmHg 30%

Day after tomorrow, 4 July, Saturday

Time Temperature Precipitation Wind Pressure Humidity
00:00 +11°C° 0 mm 1 mps 655 mmHg 32%
01:00 +10°C° 0 mm 1 mps 655 mmHg 33%
02:00 +10°C° 0 mm 1 mps 655 mmHg 35%
03:00 +8°C° 0 mm 2 mps 654 mmHg 35%
04:00 +8°C° 0 mm 2 mps 654 mmHg 35%
05:00 +8°C° 0 mm 2 mps 654 mmHg 35%
06:00 +8°C° 0 mm 2 mps 655 mmHg 35%
07:00 +8°C° 0 mm 2 mps 655 mmHg 34%
08:00 +9°C° 0 mm 2 mps 656 mmHg 34%
09:00 +12°C° 0 mm 3 mps 656 mmHg 31%
10:00 +16°C° 0 mm 3 mps 657 mmHg 27%
11:00 +18°C° 0 mm 4 mps 658 mmHg 24%
12:00 +20°C° 0 mm 3 mps 658 mmHg 22%
13:00 +21°C° 0 mm 3 mps 657 mmHg 19%
14:00 +23°C° 0 mm 2 mps 657 mmHg 16%
15:00 +23°C° 0 mm 2 mps 657 mmHg 17%
16:00 +22°C° 0 mm 1 mps 656 mmHg 18%
17:00 +21°C° 0 mm 1 mps 656 mmHg 19%
18:00 +18°C° 0 mm 1 mps 655 mmHg 26%
19:00 +14°C° 0 mm 1 mps 654 mmHg 33%
20:00 +10°C° 0 mm 0 mps 654 mmHg 40%
21:00 +10°C° 0 mm 0 mps 654 mmHg 44%
22:00 +9°C° 0 mm 0 mps 654 mmHg 47%
23:00 +9°C° 0 mm 0 mps 654 mmHg 51%

5 July, Sunday

Time Temperature Precipitation Wind Pressure Humidity
00:00 +8°C° 0 mm 0 mps 654 mmHg 52%
01:00 +9°C° 0 mm 1 mps 653 mmHg 54%
02:00 +9°C° 0 mm 1 mps 653 mmHg 56%
03:00 +8°C° 0 mm 1 mps 653 mmHg 58%
04:00 +8°C° 0 mm 1 mps 652 mmHg 61%
05:00 +6°C° 0 mm 0 mps 652 mmHg 63%
06:00 +8°C° 0 mm 1 mps 653 mmHg 58%
07:00 +9°C° 0 mm 1 mps 654 mmHg 52%
08:00 +10°C° 0 mm 1 mps 655 mmHg 47%
09:00 +14°C° 0 mm 1 mps 656 mmHg 37%
10:00 +18°C° 0 mm 1 mps 657 mmHg 26%
11:00 +21°C° 0 mm 2 mps 658 mmHg 16%
12:00 +23°C° 0 mm 2 mps 657 mmHg 14%
13:00 +24°C° 0 mm 2 mps 657 mmHg 12%
14:00 +25°C° 0 mm 3 mps 656 mmHg 10%
15:00 +24°C° 0 mm 2 mps 656 mmHg 11%
16:00 +23°C° 0 mm 2 mps 655 mmHg 12%
17:00 +21°C° 0 mm 2 mps 655 mmHg 13%
18:00 +18°C° 0 mm 2 mps 654 mmHg 15%
19:00 +16°C° 0 mm 2 mps 654 mmHg 18%
20:00 +13°C° 0 mm 2 mps 653 mmHg 21%
21:00 +12°C° 0 mm 2 mps 653 mmHg 23%
22:00 +12°C° 0 mm 1 mps 653 mmHg 24%
23:00 +11°C° 0 mm 1 mps 653 mmHg 26%

6 July, Monday

Time Temperature Precipitation Wind Pressure Humidity
00:00 +10°C° 0 mm 1 mps 653 mmHg 27%
01:00 +10°C° 0 mm 1 mps 653 mmHg 28%
02:00 +10°C° 0 mm 1 mps 652 mmHg 29%
03:00 +9°C° 0 mm 1 mps 652 mmHg 33%
04:00 +9°C° 0 mm 1 mps 652 mmHg 37%
05:00 +8°C° 0 mm 1 mps 652 mmHg 41%
06:00 +9°C° 0 mm 1 mps 653 mmHg 35%
07:00 +10°C° 0 mm 1 mps 653 mmHg 29%
08:00 +12°C° 0 mm 1 mps 654 mmHg 24%
09:00 +15°C° 0 mm 2 mps 655 mmHg 20%
10:00 +18°C° 0 mm 2 mps 656 mmHg 16%
11:00 +21°C° 0 mm 3 mps 656 mmHg 12%
12:00 +24°C° 0 mm 3 mps 656 mmHg 11%
13:00 +25°C° 0 mm 3 mps 656 mmHg 10%
14:00 +26°C° 0 mm 3 mps 655 mmHg 8%
15:00 +25°C° 0 mm 3 mps 655 mmHg 9%
16:00 +24°C° 0 mm 2 mps 655 mmHg 10%
17:00 +23°C° 0 mm 2 mps 654 mmHg 11%
18:00 +19°C° 0 mm 2 mps 654 mmHg 13%
19:00 +17°C° 0 mm 2 mps 653 mmHg 16%
20:00 +14°C° 0 mm 2 mps 652 mmHg 18%
21:00 +13°C° 0 mm 2 mps 652 mmHg 21%
22:00 +12°C° 0 mm 1 mps 652 mmHg 24%
23:00 +12°C° 0 mm 1 mps 652 mmHg 27%

7 July, Tuesday

Time Temperature Precipitation Wind Pressure Humidity
00:00 +11°C° 0 mm 1 mps 652 mmHg 28%
01:00 +11°C° 0 mm 1 mps 652 mmHg 29%
02:00 +9°C° 0 mm 2 mps 652 mmHg 30%
03:00 +9°C° 0 mm 2 mps 652 mmHg 32%
04:00 +9°C° 0 mm 2 mps 652 mmHg 35%
05:00 +8°C° 0 mm 2 mps 652 mmHg 37%
06:00 +9°C° 0 mm 2 mps 652 mmHg 35%
07:00 +9°C° 0 mm 2 mps 653 mmHg 34%
08:00 +10°C° 0 mm 2 mps 653 mmHg 33%
09:00 +14°C° 0 mm 2 mps 654 mmHg 28%
10:00 +18°C° 0 mm 2 mps 655 mmHg 23%
11:00 +21°C° 0 mm 3 mps 656 mmHg 18%
12:00 +23°C° 0 mm 2 mps 655 mmHg 16%
13:00 +25°C° 0 mm 2 mps 655 mmHg 14%
14:00 +26°C° 0 mm 2 mps 655 mmHg 12%
15:00 +25°C° 0 mm 1 mps 655 mmHg 13%
16:00 +24°C° 0 mm 1 mps 654 mmHg 14%
17:00 +23°C° 0 mm 1 mps 654 mmHg 15%
18:00 +20°C° 0 mm 1 mps 653 mmHg 20%
19:00 +15°C° 0 mm 0 mps 652 mmHg 26%
20:00 +11°C° 0 mm 0 mps 651 mmHg 32%
21:00 +11°C° 0 mm 0 mps 651 mmHg 35%
22:00 +10°C° 0 mm 0 mps 651 mmHg 39%
23:00 +10°C° 0 mm 0 mps 651 mmHg 43%
Show more